Regional Weather Roundup
Issued by NWS

Home | Current Version | Previous Version | Text Only | Print | Product List | Glossary On
Versions: 1 2 3 4 5 6 7 8 9 10 11 12 13 14 15 16 17 18 19 20 21 22 23 24 25 26 27 28
000
ASCA42 TJSJ 210710
RWRPR
PUERTO RICO/U.S. VIRGIN ISLANDS HOURLY WEATHER ROUNDUP
NATIONAL WEATHER SERVICE SAN JUAN PR
300 AM AST SUN JAN 21 2018

PRZ001>002-007>008-010-210800-
PUERTO RICO

CITY           SKY/WX    TMP DP  RH WIND       PRES   REMARKS
SAN JUAN LMM   PTCLDY    75  73  94 SE5       30.03F
PONCE          CLEAR     70  66  88 CALM      30.06F
$$

VIZ001>002-210800-
U.S. VIRGIN ISLANDS

CITY           SKY/WX    TMP DP  RH WIND       PRES   REMARKS
CHARLOTTE AMA  PTCLDY    77  73  88 E9        30.02F
CHRISTIANSTED  CLEAR     73  72  94 NE8       30.02F
$$

HOURLY WEATHER ROUNDUP FOR THE NEWS MEDIA

CITY           SKY/WX    TMP DP  RH WIND       PRES   REMARKS
ORLANDO        FAIR      58  50  75 N3        30.24R
NEW YORK       FAIR      32  28  85 SW7       30.08R WCI  26
NEWARK         FAIR      39  28  64 W7        30.07R WCI  34
CHICAGO        CLOUDY    39  35  86 S3        29.97F
HARTFORD       FAIR      30  26  85 CALM      30.00R
BOSTON         MOCLDY    40  28  62 W8        29.98R WCI  34
DALLAS         MOCLDY    63  59  87 S18G25    29.92F
PHILADELPHIA   FAIR      33  29  85 CALM      30.11R
LOS ANGELES    CLEAR     54  26  34 NW15      30.16R
WASHINGTON DC  FAIR      31  28  89 CALM      30.12R



USA.gov is the U.S. government's official web portal to all federal, state and local government web resources and services.